Wind_Speed
26 25 25 25 25 26 26 26 25 25 26 27 27 28 28 27 27 27 27 26 26 26 27 27 27 28 29 29 29 28 29 29 30 31 32 32 32 33
24 24 24 24 23 24 24 25 25 26 26 26 27 27 26 26 26 26 26 26 25 25 26 26 26 26 27 28 28 29 29 28 29 30 31 32 32 33
20 20 20 21 21 22 23 24 25 26 25 25 26 26 26 26 25 24 24 24 24 24 24 24 24 25 25 26 27 27 27 28 28 29 30 30 31 31
19 19 19 20 20 21 21 22 23 23 24 23 23 24 24 24 24 24 23 23 23 23 23 23 23 23 24 24 25 26 26 27 28 29 29 30 30 30
18 19 19 19 20 20 21 21 21 22 23 23 23 23 23 23 23 23 23 23 22 22 23 23 23 23 23 23 23 24 25 26 27 28 29 29 28 27
17 18 19 20 20 20 19 19 20 20 21 21 22 21 22 22 22 22 22 22 22 23 23 22 22 22 22 22 23 23 24 25 25 26 27 27 27 27
16 17 17 18 18 18 17 17 18 18 18 18 19 19 19 20 20 20 20 20 20 21 21 21 21 21 22 21 22 22 23 23 24 25 25 26 26 27
14 14 15 15 16 15 15 16 16 17 17 17 17 17 18 19 19 19 19 19 19 20 20 20 20 20 21 20 21 21 21 22 22 22 23 23 23 23
14 13 13 13 14 14 14 14 14 14 14 14 14 15 16 16 17 17 17 18 18 18 18 18 19 18 18 18 18 18 19 19 20 20 20 20 21 21
12 11 11 11 12 12 11 11 11 11 11 11 12 13 13 13 14 14 15 15 15 15 15 14 14 15 15 15 16 17 17 18 18 19 19 20 21 22
9 9 9 9 9 8 8 9 8 8 9 9 10 10 11 11 11 12 12 12 11 10 11 11 11 12 13 14 15 16 16 16 17 18 19 21 22 22
8 7 7 7 6 6 6 6 6 7 7 8 8 8 8 9 9 9 9 9 8 8 9 9 9 10 11 12 13 14 15 15 16 17 19 20 20 21
6 6 5 5 4 3 3 4 5 6 6 6 6 6 7 7 7 7 7 7 7 7 7 8 8 9 10 11 12 13 14 15 16 17 17 18 18 19
6 5 4 4 3 2 1 1 2 3 4 4 4 4 5 5 5 5 6 6 6 6 6 7 7 8 9 11 11 12 12 14 15 15 16 17 17 18
7 6 5 4 4 3 2 2 2 2 2 2 2 3 3 4 4 4 4 5 5 5 5 6 7 8 9 10 11 12 13 14 14 15 16 16 17 19
8 7 7 6 5 4 3 3 3 2 2 2 2 2 2 2 2 3 3 3 4 5 5 6 7 8 10 11 12 13 14 15 15 15 16 17 18 19
9 8 7 7 6 5 5 4 3 3 3 2 1 1 1 2 2 1 2 3 4 4 5 6 7 9 11 12 13 14 15 15 15 16 17 18 18 19
9 9 8 8 7 6 6 5 4 3 3 2 1 1 1 1 2 2 3 4 5 6 7 8 9 10 11 13 14 15 16 16 16 17 18 19 20 21
8 8 8 7 6 6 5 5 4 3 2 2 2 1 1 1 2 3 4 5 7 8 9 10 11 12 13 14 15 16 17 17 18 19 20 21 21 22
8 8 7 6 6 5 5 4 4 3 3 2 2 2 3 3 4 5 6 8 8 9 10 12 13 15 16 16 16 17 19 20 20 21 21 22 23 24
8 8 7 6 6 5 5 4 3 3 3 3 4 5 5 5 6 7 8 9 10 11 13 14 15 17 18 18 18 19 20 22 22 23 23 24 24 25
9 8 7 7 6 5 4 4 4 4 4 5 6 6 7 7 8 9 10 11 12 14 15 16 17 18 19 19 20 21 22 23 24 25 26 26 27 27
9 9 8 8 6 5 5 5 5 6 7 7 8 8 9 10 11 11 12 13 15 16 17 18 19 20 20 21 22 23 24 25 25 26 26 27 28 29
Wind_Direction
272 271 269 266 265 264 260 257 257 257 257 257 258 257 258 259 259 260 260 261 262 261 260 261 261 261 260 260 260 261 260 261 263 262 263 262 262 263
272 269 268 266 265 264 262 259 257 258 257 257 257 257 257 257 258 259 259 258 260 262 261 261 262 262 260 260 259 259 260 261 262 263 266 266 264 265
271 270 269 267 266 264 261 259 258 258 257 256 255 255 256 255 256 256 257 258 257 261 262 261 262 262 260 259 260 259 260 261 262 264 266 267 265 264
273 272 271 270 269 266 262 260 258 256 255 253 254 255 254 254 255 254 256 256 256 260 261 261 261 261 261 261 261 261 260 261 262 263 264 264 264 263
273 273 272 271 270 268 265 262 259 255 252 252 253 253 252 252 253 254 256 257 258 261 262 262 260 260 260 261 262 262 261 261 262 262 263 264 265 266
275 273 272 271 271 270 265 262 260 258 256 254 251 250 251 251 252 254 256 256 259 261 263 261 259 259 260 261 261 262 262 261 260 262 263 263 264 265
279 277 274 271 270 269 266 263 260 258 257 253 250 250 251 252 253 254 256 256 259 258 259 258 256 257 259 261 262 263 263 263 264 266 265 265 266 266
287 283 276 271 268 267 267 265 261 258 256 254 251 250 250 252 254 255 256 255 257 257 258 259 257 257 258 259 261 262 264 265 267 266 265 266 266 265
290 285 280 275 270 269 267 263 260 258 255 252 249 248 248 251 252 254 255 255 257 258 260 262 258 257 257 259 262 263 264 266 267 266 265 265 264 264
294 291 287 284 277 272 264 260 256 252 248 244 243 245 246 250 250 251 254 255 254 255 256 259 258 258 258 259 263 264 267 270 270 266 266 267 268 268
303 295 291 286 278 274 263 256 252 247 241 239 240 243 246 247 247 249 249 251 249 253 256 259 259 260 262 267 270 271 273 275 275 274 274 274 273 272
318 310 305 298 285 278 267 251 245 244 242 240 241 242 244 242 242 243 241 242 249 255 257 260 264 266 268 273 277 279 280 280 281 281 280 279 278 277
341 336 332 323 307 293 271 248 242 238 236 236 235 237 237 236 237 237 238 244 249 256 258 262 269 275 279 282 285 288 287 286 286 285 282 280 280 281
4 4 2 3 2 350 321 221 218 219 214 212 218 226 229 228 235 242 240 240 249 258 264 269 275 283 290 293 294 293 293 294 293 290 287 285 284 284
24 26 34 47 51 57 82 120 132 142 162 183 213 220 224 231 237 241 240 241 242 252 269 278 284 292 297 299 300 301 300 300 298 296 295 293 290 288
33 40 47 55 61 61 75 99 108 119 131 157 193 205 210 212 221 228 235 236 242 253 269 283 291 297 301 304 306 306 305 304 301 299 299 298 295 294
43 45 45 50 55 60 64 68 80 97 102 110 125 154 179 190 206 227 243 257 271 278 282 289 298 307 309 308 309 309 308 306 304 303 302 301 300 299
42 44 45 44 51 56 58 58 66 76 75 76 76 134 164 213 240 262 276 283 287 290 295 300 305 310 311 311 312 312 311 310 309 308 306 304 303 301
36 36 36 39 50 51 50 53 57 64 56 47 33 13 326 301 290 290 293 294 297 300 303 307 311 315 315 313 313 313 313 313 311 309 307 305 303 301
31 32 33 36 38 39 43 44 43 43 29 15 2 342 328 318 312 308 306 305 306 307 307 308 311 314 315 315 314 312 312 311 310 308 308 307 305 303
25 29 28 25 22 22 25 22 20 18 4 348 342 334 326 321 315 311 311 310 310 310 309 310 312 313 315 315 314 313 313 313 311 309 307 306 305 303
23 20 16 11 10 8 2 355 350 344 335 329 326 321 316 314 313 310 309 310 310 309 309 310 312 313 314 314 313 313 312 311 311 310 309 308 307 307
12 7 1 356 352 344 337 331 327 322 320 319 316 311 308 309 309 309 309 310 310 310 311 311 311 312 312 312 312 311 311 311 309 308 307 307 308 308
Height
5753 5753 5753 5753 5753 5754 5755 5756 5758 5758 5759 5760 5761 5762 5763 5764 5765 5766 5767 5767 5768 5769 5769 5770 5770 5771 5772 5772 5773 5774 5774 5775 5775 5775 5775 5775 5775 5775
5746 5746 5746 5746 5746 5746 5747 5748 5749 5750 5751 5752 5753 5755 5755 5756 5757 5758 5759 5760 5761 5761 5762 5762 5763 5763 5764 5764 5765 5766 5766 5767 5767 5767 5767 5767 5767 5766
5738 5739 5738 5739 5739 5739 5739 5740 5741 5742 5743 5745 5746 5747 5748 5749 5750 5751 5752 5753 5754 5754 5755 5755 5755 5756 5756 5757 5757 5758 5758 5759 5759 5759 5759 5759 5758 5758
5732 5732 5732 5732 5732 5732 5732 5733 5733 5734 5736 5737 5738 5739 5740 5742 5743 5744 5745 5746 5747 5747 5748 5748 5748 5749 5749 5749 5749 5750 5751 5751 5751 5751 5751 5751 5751 5750
5726 5726 5726 5726 5725 5725 5725 5726 5726 5727 5728 5730 5731 5732 5733 5735 5736 5737 5738 5739 5740 5741 5741 5741 5741 5742 5742 5742 5742 5743 5743 5743 5743 5743 5743 5743 5743 5743
5721 5720 5720 5719 5719 5719 5719 5719 5720 5720 5721 5723 5724 5725 5727 5728 5729 5731 5732 5733 5734 5734 5734 5734 5735 5735 5735 5735 5735 5735 5736 5736 5736 5735 5735 5735 5735 5735
5716 5715 5714 5713 5713 5713 5713 5713 5713 5714 5715 5716 5717 5719 5720 5722 5723 5724 5725 5727 5727 5728 5728 5728 5728 5728 5728 5729 5729 5729 5729 5728 5728 5728 5728 5728 5728 5728
5711 5710 5709 5708 5708 5708 5708 5708 5708 5709 5709 5710 5712 5713 5715 5716 5717 5718 5720 5721 5721 5722 5722 5722 5722 5722 5722 5723 5723 5722 5722 5722 5722 5721 5721 5721 5721 5721
5707 5705 5704 5703 5703 5703 5703 5703 5703 5703 5704 5705 5706 5708 5709 5710 5712 5713 5714 5715 5716 5716 5716 5716 5717 5717 5716 5717 5717 5717 5716 5716 5716 5715 5715 5715 5714 5714
5703 5701 5700 5700 5699 5699 5699 5699 5699 5699 5700 5701 5702 5703 5705 5706 5707 5708 5709 5710 5710 5711 5711 5712 5712 5712 5712 5712 5712 5711 5711 5711 5710 5709 5709 5709 5708 5708
5700 5699 5697 5696 5696 5695 5696 5696 5696 5697 5697 5698 5699 5700 5701 5702 5703 5704 5705 5706 5707 5707 5708 5708 5708 5708 5708 5708 5707 5706 5706 5705 5704 5703 5703 5702 5701 5701
5698 5696 5695 5694 5693 5693 5693 5693 5694 5695 5695 5696 5697 5698 5699 5700 5700 5701 5702 5703 5704 5704 5704 5705 5705 5705 5705 5704 5703 5702 5701 5700 5699 5698 5697 5696 5695 5694
5696 5695 5694 5693 5692 5692 5692 5692 5692 5693 5694 5694 5695 5696 5697 5698 5698 5699 5700 5701 5702 5702 5702 5702 5702 5702 5701 5701 5700 5698 5697 5695 5694 5692 5691 5690 5689 5688
5696 5695 5693 5692 5691 5691 5691 5691 5691 5692 5693 5693 5694 5695 5696 5697 5697 5698 5698 5699 5700 5700 5700 5700 5699 5699 5698 5697 5696 5694 5693 5691 5689 5687 5686 5685 5683 5682
5696 5695 5694 5693 5692 5691 5691 5691 5692 5692 5692 5693 5694 5694 5695 5696 5696 5697 5697 5697 5698 5698 5698 5697 5697 5696 5695 5693 5692 5690 5689 5687 5685 5683 5681 5679 5678 5676
5698 5696 5695 5694 5693 5693 5692 5692 5692 5693 5693 5693 5694 5694 5695 5695 5696 5696 5696 5696 5696 5696 5696 5695 5694 5693 5692 5690 5689 5686 5684 5682 5681 5678 5676 5674 5672 5670
5700 5698 5697 5696 5695 5695 5694 5693 5693 5693 5694 5694 5694 5694 5695 5695 5695 5695 5695 5695 5695 5695 5694 5694 5692 5691 5689 5687 5685 5683 5680 5678 5676 5674 5671 5669 5667 5664
5702 5701 5699 5698 5697 5696 5696 5695 5695 5695 5695 5695 5695 5695 5695 5695 5695 5695 5695 5695 5694 5693 5692 5691 5690 5688 5686 5684 5681 5679 5676 5674 5671 5669 5666 5664 5661 5659
5705 5703 5702 5700 5699 5698 5698 5697 5697 5697 5696 5696 5696 5695 5695 5695 5695 5694 5694 5693 5692 5691 5690 5689 5687 5685 5683 5681 5678 5675 5672 5669 5667 5664 5661 5658 5655 5653
5707 5705 5704 5702 5701 5700 5700 5699 5698 5698 5697 5697 5696 5696 5695 5695 5694 5693 5692 5691 5690 5689 5688 5686 5684 5681 5679 5677 5674 5671 5667 5664 5661 5658 5655 5652 5649 5646
5708 5707 5705 5704 5703 5702 5701 5700 5699 5699 5698 5697 5697 5696 5695 5694 5693 5692 5691 5689 5688 5686 5684 5682 5680 5677 5674 5672 5669 5666 5663 5659 5655 5652 5649 5646 5643 5639
5710 5708 5707 5705 5704 5703 5702 5701 5700 5699 5698 5697 5696 5695 5694 5692 5691 5690 5688 5687 5685 5683 5681 5678 5675 5673 5670 5667 5664 5661 5657 5653 5649 5645 5641 5638 5634 5630
5712 5710 5708 5706 5705 5704 5702 5701 5700 5699 5697 5696 5695 5693 5692 5690 5689 5687 5685 5683 5681 5679 5676 5674 5671 5668 5665 5661 5658 5655 5651 5647 5643 5639 5635 5630 5626 5622